| time (UTC) | temp F | wind direction | speed MPH | gust MPH | rain 1hr in | rain 24hr in | rain mn in | humidity % | barometer mb |
| 20260507105703 | 69 | 109 | 10.0 | 10.0 | 0.00 | 0.00 | 0.00 | 87 | 1010.5 |
| 20260507105104 | 70 | 96 | 6.0 | 10.0 | 0.00 | 0.00 | 0.00 | 87 | 1010.5 |
| 20260507104504 | 69 | 90 | 10.0 | 10.0 | 0.00 | 0.00 | 0.00 | 88 | 1010.5 |
| 20260507103904 | 69 | 112 | 10.0 | 10.0 | 0.00 | 0.00 | 0.00 | 88 | 1010.5 |
| 20260507103604 | 69 | 125 | 10.0 | 10.0 | 0.00 | 0.00 | 0.00 | 88 | 1010.5 |
| 20260507103303 | 69 | 135 | 10.0 | 10.0 | 0.00 | 0.00 | 0.00 | 86 | 1010.5 |
| 20260507103004 | 70 | 131 | 8.0 | 9.0 | 0.00 | 0.00 | 0.00 | 87 | 1010.5 |
| 20260507102704 | 69 | 135 | 8.0 | 9.0 | 0.00 | 0.00 | 0.00 | 86 | 1010.5 |
| 20260507102403 | 69 | 141 | 9.0 | 9.0 | 0.00 | 0.00 | 0.00 | 86 | 1010.5 |
| 20260507102104 | 69 | 152 | 8.0 | 8.0 | 0.00 | 0.00 | 0.00 | 87 | 1010.5 |
| 20260507101804 | 68 | 158 | 6.0 | 6.0 | 0.00 | 0.00 | 0.00 | 87 | 1010.5 |
| 20260507101504 | 69 | 145 | 6.0 | 6.0 | 0.00 | 0.00 | 0.00 | 88 | 1010.5 |
| 20260507101204 | 69 | 131 | 6.0 | 6.0 | 0.00 | 0.00 | 0.00 | 88 | 1010.5 |
| 20260507100604 | 68 | 105 | 4.0 | 9.0 | 0.00 | 0.00 | 0.00 | 89 | 1010.5 |
| 20260507100303 | 69 | 100 | 4.0 | 9.0 | 0.00 | 0.00 | 0.00 | 87 | 1010.5 |
| 20260507100005 | 69 | 94 | 6.0 | 11.0 | 0.00 | 0.00 | 0.00 | 87 | 1010.5 |
| 20260507095404 | 69 | 79 | 6.0 | 11.0 | 0.00 | 0.00 | 0.00 | 86 | 1010.5 |
| 20260507094504 | 69 | 121 | 9.0 | 11.0 | 0.00 | 0.00 | 0.00 | 87 | 1010.5 |
| 20260507094203 | 69 | 123 | 8.0 | 10.0 | 0.00 | 0.00 | 0.00 | 86 | 1010.5 |
| 20260507093604 | 68 | 118 | 10.0 | 10.0 | 0.00 | 0.00 | 0.00 | 87 | 1010.5 |
| 20260507093004 | 68 | 95 | 9.0 | 11.0 | 0.00 | 0.00 | 0.00 | 86 | 1010.5 |
| 20260507092703 | 68 | 120 | 4.0 | 13.0 | 0.00 | 0.00 | 0.00 | 86 | 1010.5 |
| 20260507092403 | 68 | 106 | 11.0 | 13.0 | 0.00 | 0.00 | 0.00 | 86 | 1010.5 |
| 20260507092104 | 68 | 106 | 4.0 | 13.0 | 0.00 | 0.00 | 0.00 | 87 | 1010.5 |
| 20260507091804 | 68 | 90 | 8.0 | 13.0 | 0.00 | 0.00 | 0.00 | 87 | 1010.5 |
| 20260507091504 | 67 | 90 | 8.0 | 16.0 | 0.00 | 0.00 | 0.00 | 89 | 1010.5 |
| 20260507091203 | 68 | 90 | 5.0 | 16.0 | 0.00 | 0.00 | 0.00 | 89 | 1010.5 |
| 20260507090604 | 68 | 87 | 16.0 | 16.0 | 0.00 | 0.00 | 0.00 | 88 | 1010.5 |
| 20260507090304 | 69 | 100 | 11.0 | 12.0 | 0.00 | 0.00 | 0.00 | 89 | 1010.5 |
| 20260507090005 | 68 | 111 | 12.0 | 12.0 | 0.00 | 0.00 | 0.00 | 89 | 1010.5 |
| 20260507085404 | 68 | 92 | 10.0 | 11.0 | 0.00 | 0.00 | 0.00 | 89 | 1010.5 |
| 20260507085105 | 68 | 81 | 11.0 | 11.0 | 0.00 | 0.00 | 0.00 | 89 | 1010.5 |
| 20260507084804 | 69 | 78 | 4.0 | 11.0 | 0.00 | 0.00 | 0.00 | 89 | 1009.5 |
| 20260507084504 | 68 | 66 | 11.0 | 11.0 | 0.00 | 0.00 | 0.00 | 89 | 1009.5 |
| 20260507084204 | 68 | 60 | 11.0 | 11.0 | 0.00 | 0.00 | 0.00 | 89 | 1009.5 |
| 20260507083904 | 69 | 45 | 6.0 | 6.0 | 0.00 | 0.00 | 0.00 | 89 | 1009.5 |
| 20260507083604 | 69 | 51 | 6.0 | 7.0 | 0.00 | 0.00 | 0.00 | 89 | 1009.5 |
| 20260507083304 | 68 | 83 | 6.0 | 7.0 | 0.00 | 0.00 | 0.00 | 88 | 1010.5 |
| 20260507083004 | 68 | 116 | 6.0 | 7.0 | 0.00 | 0.00 | 0.00 | 89 | 1010.5 |
| 20260507082704 | 68 | 140 | 7.0 | 7.0 | 0.00 | 0.00 | 0.00 | 90 | 1010.5 |
| 20260507082404 | 68 | 135 | 6.0 | 6.0 | 0.00 | 0.00 | 0.00 | 90 | 1010.5 |
| 20260507082104 | 68 | 135 | 5.0 | 6.0 | 0.00 | 0.00 | 0.00 | 90 | 1010.5 |
| 20260507081804 | 68 | 135 | 5.0 | 6.0 | 0.00 | 0.00 | 0.00 | 89 | 1009.5 |
| 20260507081504 | 68 | 135 | 5.0 | 6.0 | 0.00 | 0.00 | 0.00 | 89 | 1009.5 |
| 20260507081204 | 68 | 130 | 6.0 | 6.0 | 0.00 | 0.00 | 0.00 | 88 | 1009.5 |
| 20260507080904 | 68 | 111 | 6.0 | 6.0 | 0.00 | 0.00 | 0.00 | 89 | 1009.5 |
| 20260507080603 | 69 | 95 | 6.0 | 6.0 | 0.00 | 0.00 | 0.00 | 90 | 1009.5 |
| 20260507080303 | 68 | 83 | 5.0 | 6.0 | 0.00 | 0.00 | 0.00 | 90 | 1010.5 |
| 20260507080004 | 68 | 85 | 5.0 | 6.0 | 0.00 | 0.00 | 0.00 | 90 | 1010.5 |
| 20260507075703 | 68 | 86 | 6.0 | 6.0 | 0.00 | 0.00 | 0.00 | 90 | 1010.5 |
| 20260507075404 | 68 | 85 | 6.0 | 6.0 | 0.00 | 0.00 | 0.00 | 90 | 1010.5 |
| 20260507075104 | 68 | 82 | 3.0 | 6.0 | 0.00 | 0.00 | 0.00 | 90 | 1010.5 |
| 20260507074804 | 68 | 71 | 3.0 | 6.0 | 0.00 | 0.00 | 0.00 | 90 | 1010.5 |
| 20260507073904 | 67 | 52 | 6.0 | 8.0 | 0.00 | 0.00 | 0.00 | 92 | 1010.5 |
| 20260507073604 | 66 | 85 | 8.0 | 8.0 | 0.00 | 0.00 | 0.00 | 91 | 1010.5 |
| 20260507073303 | 67 | 96 | 2.0 | 4.0 | 0.00 | 0.00 | 0.00 | 91 | 1010.5 |
| 20260507073003 | 67 | 82 | 2.0 | 4.0 | 0.00 | 0.00 | 0.00 | 91 | 1010.5 |
| 20260507072704 | 67 | 75 | 4.0 | 8.0 | 0.00 | 0.00 | 0.00 | 91 | 1010.5 |
| 20260507072403 | 67 | 70 | 2.0 | 8.0 | 0.00 | 0.00 | 0.00 | 91 | 1010.5 |
| 20260507072103 | 67 | 72 | 3.0 | 8.0 | 0.00 | 0.00 | 0.00 | 91 | 1010.5 |
| 20260507071804 | 67 | 75 | 8.0 | 8.0 | 0.00 | 0.00 | 0.00 | 91 | 1010.5 |
| 20260507071203 | 67 | 55 | 5.0 | 5.0 | 0.00 | 0.00 | 0.00 | 92 | 1010.5 |
| 20260507070604 | 67 | 21 | 3.0 | 4.0 | 0.00 | 0.00 | 0.00 | 93 | 1010.5 |
| 20260507070304 | 66 | 37 | 4.0 | 6.0 | 0.00 | 0.00 | 0.00 | 93 | 1010.5 |
| 20260507070008 | 66 | 46 | 3.0 | 6.0 | 0.00 | 0.00 | 0.00 | 94 | 1010.5 |
| 20260507065703 | 66 | 56 | 4.0 | 6.0 | 0.00 | 0.00 | 0.00 | 94 | 1010.5 |
| 20260507065404 | 65 | 50 | 6.0 | 6.0 | 0.00 | 0.00 | 0.00 | 95 | 1010.5 |
| 20260507065104 | 65 | 48 | 3.0 | 4.0 | 0.00 | 0.00 | 0.00 | 96 | 1010.5 |
| 20260507064803 | 65 | 45 | 3.0 | 4.0 | 0.00 | 0.00 | 0.00 | 96 | 1010.5 |
| 20260507064503 | 64 | 33 | 3.0 | 4.0 | 0.00 | 0.00 | 0.00 | 97 | 1010.5 |
| 20260507064204 | 64 | 26 | 4.0 | 4.0 | 0.00 | 0.00 | 0.00 | 97 | 1010.5 |
| 20260507063904 | 63 | 10 | 4.0 | 4.0 | 0.00 | 0.00 | 0.00 | 97 | 1010.5 |
| 20260507063604 | 63 | 12 | 2.0 | 3.0 | 0.00 | 0.00 | 0.00 | 98 | 1010.5 |
| 20260507063303 | 62 | 16 | 2.0 | 4.0 | 0.00 | 0.00 | 0.00 | 98 | 1009.5 |
| 20260507063003 | 62 | 13 | 2.0 | 4.0 | 0.00 | 0.00 | 0.00 | 98 | 1009.5 |
| 20260507062704 | 61 | 22 | 2.0 | 4.0 | 0.00 | 0.00 | 0.00 | 98 | 1009.5 |
| 20260507062404 | 60 | 27 | 3.0 | 4.0 | 0.00 | 0.00 | 0.00 | 98 | 1009.5 |
| 20260507062103 | 59 | 33 | 1.0 | 3.0 | 0.00 | 0.00 | 0.00 | 98 | 1009.5 |
| 20260507061504 | 59 | 32 | 3.0 | 3.0 | 0.00 | 0.00 | 0.00 | 98 | 1009.5 |
| 20260507061204 | 59 | 24 | 3.0 | 3.0 | 0.00 | 0.00 | 0.00 | 98 | 1009.5 |
| 20260507060904 | 59 | 37 | 3.0 | 3.0 | 0.00 | 0.00 | 0.00 | 98 | 1009.5 |
| 20260507060303 | 59 | 24 | 1.0 | 4.0 | 0.00 | 0.00 | 0.00 | 98 | 1009.5 |
| 20260507060004 | 58 | 30 | 3.0 | 4.0 | 0.00 | 0.00 | 0.00 | 98 | 1009.5 |
| 20260507055703 | 57 | 38 | 2.0 | 4.0 | 0.00 | 0.00 | 0.00 | 98 | 1009.5 |
| 20260507055103 | 56 | 49 | 4.0 | 4.0 | 0.00 | 0.00 | 0.00 | 98 | 1009.5 |
| 20260507054803 | 56 | 49 | 3.0 | 4.0 | 0.00 | 0.00 | 0.00 | 98 | 1009.5 |
| 20260507054204 | 56 | 38 | 2.0 | 3.0 | 0.00 | 0.00 | 0.00 | 98 | 1009.5 |
| 20260507053903 | 56 | 32 | 3.0 | 4.0 | 0.00 | 0.00 | 0.00 | 98 | 1009.5 |
| 20260507053303 | 56 | 23 | 2.0 | 4.0 | 0.00 | 0.00 | 0.00 | 98 | 1009.5 |
| 20260507052704 | 56 | 26 | 3.0 | 4.0 | 0.00 | 0.00 | 0.00 | 98 | 1009.5 |
| 20260507052404 | 56 | 33 | 3.0 | 4.0 | 0.00 | 0.00 | 0.00 | 98 | 1009.5 |
| 20260507052104 | 56 | 34 | 1.0 | 4.0 | 0.00 | 0.00 | 0.00 | 98 | 1009.5 |
| 20260507051804 | 56 | 38 | 4.0 | 4.0 | 0.00 | 0.00 | 0.00 | 98 | 1009.5 |
| 20260507051504 | 56 | 38 | 3.0 | 4.0 | 0.00 | 0.00 | 0.00 | 98 | 1009.5 |
| 20260507050904 | 56 | 71 | 1.0 | 2.0 | 0.00 | 0.00 | 0.00 | 98 | 1009.5 |
| 20260507050604 | 55 | 72 | 1.0 | 2.0 | 0.00 | 0.00 | 0.00 | 98 | 1009.5 |
| 20260507050304 | 55 | 90 | 0.0 | 2.0 | 0.00 | 0.00 | 0.00 | 98 | 1008.5 |
| 20260507050003 | 54 | 90 | 2.0 | 2.0 | 0.00 | 0.00 | 0.00 | 98 | 1008.5 |
| 20260507045704 | 54 | 337 | 0.0 | 2.0 | 0.00 | 0.00 | 0.00 | 98 | 1008.5 |
| 20260507045403 | 54 | 341 | 0.0 | 2.0 | 0.00 | 0.00 | 0.00 | 98 | 1008.5 |
| 20260507045104 | 54 | 343 | 0.0 | 2.0 | 0.00 | 0.00 | 0.00 | 98 | 1008.5 |
| 20260507044803 | 54 | 346 | 2.0 | 2.0 | 0.00 | 0.00 | 0.00 | 98 | 1008.5 |
| 20260507044503 | 54 | 350 | 2.0 | 2.0 | 0.00 | 0.00 | 0.00 | 98 | 1008.5 |
| 20260507043904 | 54 | 350 | 1.0 | 2.0 | 0.00 | 0.00 | 0.00 | 98 | 1008.5 |
| 20260507043603 | 54 | 346 | 2.0 | 2.0 | 0.00 | 0.00 | 0.00 | 98 | 1008.5 |
| 20260507043304 | 54 | 337 | 0.0 | 1.0 | 0.00 | 0.00 | 0.00 | 98 | 1009.5 |
| 20260507042404 | 54 | 340 | 0.0 | 2.0 | 0.00 | 0.00 | 0.00 | 98 | 1009.5 |
| 20260507042103 | 54 | 340 | 2.0 | 2.0 | 0.00 | 0.00 | 0.00 | 98 | 1009.5 |
| 20260507041804 | 54 | 350 | 2.0 | 2.0 | 0.00 | 0.00 | 0.00 | 98 | 1008.5 |
| 20260507041503 | 54 | 1 | 0.0 | 1.0 | 0.00 | 0.00 | 0.00 | 98 | 1008.5 |
| 20260507041204 | 55 | 1 | 1.0 | 2.0 | 0.00 | 0.00 | 0.00 | 98 | 1008.5 |
| 20260507040903 | 55 | 1 | 1.0 | 2.0 | 0.00 | 0.00 | 0.00 | 98 | 1008.5 |
| 20260507040604 | 55 | 3 | 1.0 | 2.0 | 0.00 | 0.00 | 0.00 | 98 | 1008.5 |
| 20260507040303 | 55 | 11 | 2.0 | 2.0 | 0.00 | 0.00 | 0.00 | 98 | 1009.5 |
| 20260507040004 | 55 | 13 | 1.0 | 2.0 | 0.00 | 0.00 | 0.00 | 98 | 1009.5 |
| 20260507035704 | 55 | 7 | 1.0 | 2.0 | 0.00 | 0.00 | 0.00 | 98 | 1009.5 |
| 20260507035403 | 55 | 357 | 2.0 | 2.0 | 0.00 | 0.00 | 0.00 | 98 | 1009.5 |
| 20260507035104 | 55 | 346 | 0.0 | 3.0 | 0.00 | 0.00 | 0.00 | 98 | 1009.5 |
| 20260507034804 | 55 | 349 | 2.0 | 3.0 | 0.00 | 0.00 | 0.00 | 98 | 1009.5 |
| 20260507034203 | 55 | 348 | 3.0 | 3.0 | 0.00 | 0.00 | 0.00 | 98 | 1009.5 |
| 20260507033903 | 54 | 352 | 2.0 | 3.0 | 0.00 | 0.00 | 0.00 | 98 | 1009.5 |
| 20260507033304 | 54 | 348 | 2.0 | 3.0 | 0.00 | 0.00 | 0.00 | 98 | 1008.5 |
| 20260507033003 | 54 | 342 | 2.0 | 2.0 | 0.00 | 0.00 | 0.00 | 98 | 1008.5 |
| 20260507032703 | 54 | 338 | 1.0 | 2.0 | 0.00 | 0.00 | 0.00 | 98 | 1008.5 |
| 20260507032404 | 54 | 335 | 2.0 | 2.0 | 0.00 | 0.00 | 0.00 | 98 | 1008.5 |
| 20260507031504 | 54 | 346 | 2.0 | 2.0 | 0.00 | 0.00 | 0.00 | 98 | 1009.5 |
| 20260507031204 | 54 | 348 | 1.0 | 2.0 | 0.00 | 0.00 | 0.00 | 98 | 1009.5 |
| 20260507030903 | 54 | 354 | 2.0 | 2.0 | 0.00 | 0.00 | 0.00 | 98 | 1009.5 |
| 20260507030603 | 54 | 352 | 1.0 | 2.0 | 0.00 | 0.00 | 0.00 | 98 | 1009.5 |
| 20260507030304 | 54 | 341 | 1.0 | 2.0 | 0.00 | 0.00 | 0.00 | 98 | 1009.5 |
| 20260507025704 | 54 | 334 | 2.0 | 2.0 | 0.00 | 0.00 | 0.00 | 98 | 1009.5 |
| 20260507025403 | 54 | 337 | 2.0 | 2.0 | 0.00 | 0.00 | 0.00 | 98 | 1009.5 |
| 20260507025104 | 55 | 343 | 2.0 | 2.0 | 0.00 | 0.00 | 0.00 | 98 | 1009.5 |
| 20260507024803 | 55 | 342 | 1.0 | 2.0 | 0.00 | 0.00 | 0.00 | 98 | 1009.5 |
| 20260507024203 | 55 | 326 | 2.0 | 2.0 | 0.00 | 0.00 | 0.00 | 98 | 1009.5 |
| 20260507023603 | 55 | 317 | 2.0 | 2.0 | 0.00 | 0.00 | 0.00 | 98 | 1009.5 |
| 20260507023004 | 55 | 331 | 2.0 | 3.0 | 0.00 | 0.00 | 0.00 | 98 | 1009.5 |
| 20260507022704 | 55 | 327 | 2.0 | 3.0 | 0.00 | 0.00 | 0.00 | 98 | 1009.5 |
| 20260507022104 | 55 | 314 | 3.0 | 3.0 | 0.00 | 0.00 | 0.00 | 98 | 1009.5 |
| 20260507021803 | 55 | 314 | 3.0 | 3.0 | 0.00 | 0.00 | 0.00 | 98 | 1009.5 |
| 20260507021504 | 55 | 337 | 0.0 | 2.0 | 0.00 | 0.00 | 0.00 | 98 | 1009.5 |
| 20260507021204 | 55 | 345 | 0.0 | 2.0 | 0.00 | 0.00 | 0.00 | 98 | 1009.5 |
| 20260507020903 | 55 | 353 | 0.0 | 2.0 | 0.00 | 0.00 | 0.00 | 98 | 1009.5 |
| 20260507020304 | 55 | 36 | 1.0 | 2.0 | 0.00 | 0.00 | 0.00 | 98 | 1009.5 |
| 20260507020004 | 55 | 46 | 0.0 | 2.0 | 0.00 | 0.00 | 0.00 | 98 | 1009.5 |
| 20260507015704 | 55 | 35 | 0.0 | 2.0 | 0.00 | 0.00 | 0.00 | 98 | 1009.5 |
| 20260507015404 | 55 | 350 | 0.0 | 1.0 | 0.00 | 0.00 | 0.00 | 98 | 1009.5 |
| 20260507015104 | 56 | 336 | 0.0 | 2.0 | 0.00 | 0.00 | 0.00 | 98 | 1009.5 |
| 20260507014803 | 56 | 336 | 1.0 | 2.0 | 0.00 | 0.00 | 0.00 | 98 | 1009.5 |
| 20260507014504 | 56 | 338 | 1.0 | 2.0 | 0.00 | 0.00 | 0.00 | 98 | 1009.5 |
| 20260507014204 | 56 | 7 | 2.0 | 3.0 | 0.00 | 0.00 | 0.00 | 98 | 1009.5 |
| 20260507013903 | 56 | 1 | 0.0 | 3.0 | 0.00 | 0.00 | 0.00 | 98 | 1009.5 |
| 20260507013604 | 56 | 359 | 1.0 | 3.0 | 0.00 | 0.00 | 0.00 | 98 | 1009.5 |
| 20260507012703 | 56 | 359 | 2.0 | 3.0 | 0.00 | 0.00 | 0.00 | 98 | 1009.5 |
| 20260507012404 | 56 | 359 | 2.0 | 3.0 | 0.00 | 0.00 | 0.00 | 98 | 1009.5 |
| 20260507012104 | 56 | 11 | 2.0 | 3.0 | 0.00 | 0.00 | 0.00 | 98 | 1009.5 |
| 20260507011804 | 56 | 14 | 3.0 | 3.0 | 0.00 | 0.00 | 0.00 | 98 | 1009.5 |
| 20260507010904 | 56 | 15 | 2.0 | 6.0 | 0.00 | 0.00 | 0.00 | 98 | 1009.5 |
| 20260507010604 | 56 | 14 | 3.0 | 6.0 | 0.00 | 0.00 | 0.00 | 98 | 1009.5 |
| 20260507010303 | 56 | 12 | 6.0 | 6.0 | 0.00 | 0.00 | 0.00 | 98 | 1009.5 |
| 20260507010004 | 56 | 8 | 4.0 | 4.0 | 0.00 | 0.00 | 0.00 | 98 | 1009.5 |
| 20260507005704 | 56 | 24 | 2.0 | 4.0 | 0.00 | 0.00 | 0.00 | 98 | 1009.5 |
| 20260507005103 | 56 | 30 | 4.0 | 4.0 | 0.00 | 0.00 | 0.00 | 98 | 1009.5 |
| 20260507004803 | 56 | 25 | 4.0 | 5.0 | 0.00 | 0.00 | 0.00 | 98 | 1009.5 |
| 20260507004504 | 56 | 16 | 2.0 | 5.0 | 0.00 | 0.00 | 0.00 | 98 | 1009.5 |
| 20260507004204 | 56 | 16 | 2.0 | 5.0 | 0.00 | 0.00 | 0.00 | 98 | 1009.5 |
| 20260507003303 | 55 | 339 | 0.0 | 2.0 | 0.00 | 0.00 | 0.00 | 98 | 1009.5 |
| 20260507003004 | 56 | 338 | 1.0 | 2.0 | 0.00 | 0.00 | 0.00 | 98 | 1009.5 |
| 20260507002703 | 56 | 347 | 1.0 | 2.0 | 0.00 | 0.00 | 0.00 | 98 | 1009.5 |
| 20260507002403 | 56 | 9 | 2.0 | 2.0 | 0.00 | 0.00 | 0.00 | 98 | 1009.5 |
| 20260507002103 | 56 | 22 | 1.0 | 2.0 | 0.00 | 0.00 | 0.00 | 98 | 1009.5 |
| 20260507001803 | 56 | 353 | 2.0 | 2.0 | 0.00 | 0.00 | 0.00 | 98 | 1009.5 |
| 20260507001503 | 56 | 314 | 0.0 | 2.0 | 0.00 | 0.00 | 0.00 | 98 | 1009.5 |
| 20260507001203 | 56 | 319 | 0.0 | 2.0 | 0.00 | 0.00 | 0.00 | 98 | 1009.5 |
| 20260507000603 | 56 | 349 | 2.0 | 2.0 | 0.00 | 0.00 | 0.00 | 98 | 1009.5 |
| 20260507000306 | 56 | 24 | 1.0 | 1.0 | 0.00 | 0.00 | 0.00 | 98 | 1009.5 |
| 20260507000004 | 56 | 45 | 0.0 | 1.0 | 0.00 | 0.00 | 0.00 | 98 | 1009.5 |
| 20260506235703 | 56 | 46 | 1.0 | 1.0 | 0.00 | 0.00 | 0.00 | 98 | 1009.5 |
| 20260506234503 | 56 | 314 | 0.0 | 2.0 | 0.00 | 0.00 | 0.00 | 98 | 1009.5 |
| 20260506234204 | 56 | 314 | 0.0 | 2.0 | 0.00 | 0.00 | 0.00 | 98 | 1009.5 |
| 20260506233903 | 56 | 327 | 0.0 | 2.0 | 0.00 | 0.00 | 0.00 | 98 | 1009.5 |
| 20260506233603 | 56 | 348 | 0.0 | 2.0 | 0.00 | 0.00 | 0.00 | 98 | 1009.5 |
| 20260506233303 | 56 | 10 | 0.0 | 2.0 | 0.00 | 0.00 | 0.00 | 98 | 1009.5 |
| 20260506233004 | 56 | 33 | 2.0 | 3.0 | 0.00 | 0.00 | 0.00 | 98 | 1009.5 |
| 20260506232704 | 56 | 40 | 1.0 | 3.0 | 0.00 | 0.00 | 0.00 | 98 | 1009.5 |
| 20260506232403 | 56 | 24 | 1.0 | 3.0 | 0.00 | 0.00 | 0.00 | 98 | 1009.5 |
| 20260506232104 | 57 | 337 | 3.0 | 3.0 | 0.00 | 0.00 | 0.00 | 98 | 1009.5 |
| 20260506231503 | 57 | 312 | 2.0 | 2.0 | 0.00 | 0.00 | 0.00 | 98 | 1009.5 |
| 20260506231204 | 57 | 315 | 2.0 | 2.0 | 0.00 | 0.00 | 0.00 | 98 | 1009.5 |
| 20260506230903 | 56 | 321 | 2.0 | 3.0 | 0.00 | 0.00 | 0.00 | 98 | 1009.5 |
| 20260506230604 | 56 | 332 | 2.0 | 3.0 | 0.00 | 0.00 | 0.00 | 98 | 1009.5 |
| 20260506230303 | 56 | 334 | 2.0 | 3.0 | 0.00 | 0.00 | 0.00 | 98 | 1009.5 |
| 20260506230003 | 56 | 333 | 2.0 | 2.0 | 0.00 | 0.00 | 0.00 | 98 | 1009.5 |
| 20260506225703 | 56 | 319 | 2.0 | 2.0 | 0.00 | 0.00 | 0.00 | 98 | 1009.5 |
| 20260506225403 | 56 | 320 | 1.0 | 2.0 | 0.00 | 0.00 | 0.00 | 98 | 1009.5 |
| 20260506225104 | 56 | 327 | 2.0 | 2.0 | 0.00 | 0.00 | 0.00 | 98 | 1009.5 |
| 20260506224804 | 56 | 333 | 2.0 | 2.0 | 0.00 | 0.00 | 0.00 | 98 | 1009.5 |
| 20260506224503 | 56 | 337 | 2.0 | 2.0 | 0.00 | 0.00 | 0.00 | 98 | 1009.5 |
| 20260506224203 | 57 | 341 | 2.0 | 2.0 | 0.00 | 0.00 | 0.00 | 98 | 1009.5 |
| 20260506223903 | 57 | 347 | 2.0 | 2.0 | 0.00 | 0.00 | 0.00 | 98 | 1009.5 |
| 20260506223603 | 57 | 355 | 2.0 | 2.0 | 0.00 | 0.00 | 0.00 | 98 | 1009.5 |
| 20260506222704 | 57 | 319 | 1.0 | 3.0 | 0.00 | 0.00 | 0.00 | 98 | 1009.5 |
| 20260506222404 | 57 | 322 | 2.0 | 3.0 | 0.00 | 0.00 | 0.00 | 98 | 1009.5 |
| 20260506222103 | 57 | 325 | 3.0 | 3.0 | 0.00 | 0.00 | 0.00 | 98 | 1009.5 |
| 20260506221803 | 57 | 331 | 3.0 | 3.0 | 0.00 | 0.00 | 0.00 | 98 | 1009.5 |
| 20260506221504 | 57 | 335 | 3.0 | 3.0 | 0.00 | 0.00 | 0.00 | 98 | 1009.5 |
| 20260506221203 | 57 | 335 | 2.0 | 2.0 | 0.00 | 0.00 | 0.00 | 98 | 1009.5 |
| 20260506220904 | 57 | 335 | 2.0 | 2.0 | 0.00 | 0.00 | 0.00 | 98 | 1009.5 |
| 20260506220304 | 57 | 335 | 2.0 | 2.0 | 0.00 | 0.00 | 0.00 | 98 | 1009.5 |
| 20260506220004 | 57 | 333 | 2.0 | 2.0 | 0.00 | 0.00 | 0.00 | 98 | 1009.5 |
| 20260506215703 | 57 | 333 | 2.0 | 2.0 | 0.00 | 0.00 | 0.00 | 98 | 1009.5 |
| 20260506214504 | 58 | 329 | 1.0 | 2.0 | 0.00 | 0.00 | 0.00 | 98 | 1009.5 |
| 20260506214203 | 58 | 323 | 1.0 | 2.0 | 0.00 | 0.00 | 0.00 | 98 | 1009.5 |
| 20260506213904 | 58 | 325 | 2.0 | 3.0 | 0.00 | 0.00 | 0.00 | 98 | 1009.5 |
| 20260506213603 | 58 | 329 | 2.0 | 3.0 | 0.00 | 0.00 | 0.00 | 98 | 1009.5 |
| 20260506213304 | 58 | 336 | 2.0 | 3.0 | 0.00 | 0.00 | 0.00 | 98 | 1009.5 |
| 20260506213004 | 58 | 339 | 2.0 | 3.0 | 0.00 | 0.00 | 0.00 | 98 | 1009.5 |
| 20260506212704 | 58 | 327 | 3.0 | 3.0 | 0.00 | 0.00 | 0.00 | 98 | 1009.5 |
| 20260506212403 | 58 | 328 | 0.0 | 2.0 | 0.00 | 0.00 | 0.00 | 98 | 1009.5 |
| 20260506211503 | 58 | 351 | 2.0 | 3.0 | 0.00 | 0.00 | 0.00 | 98 | 1009.5 |
| 20260506210904 | 58 | 353 | 2.0 | 3.0 | 0.00 | 0.00 | 0.00 | 98 | 1009.5 |
| 20260506210603 | 59 | 351 | 2.0 | 3.0 | 0.00 | 0.00 | 0.00 | 98 | 1009.5 |
| 20260506205404 | 59 | 331 | 1.0 | 2.0 | 0.00 | 0.00 | 0.00 | 96 | 1009.5 |
| 20260506205103 | 59 | 337 | 1.0 | 2.0 | 0.00 | 0.00 | 0.00 | 96 | 1009.5 |
| 20260506204803 | 59 | 352 | 0.0 | 3.0 | 0.00 | 0.00 | 0.00 | 96 | 1009.5 |
| 20260506204504 | 59 | 5 | 1.0 | 3.0 | 0.00 | 0.00 | 0.00 | 95 | 1009.5 |
| 20260506203904 | 59 | 22 | 3.0 | 3.0 | 0.00 | 0.00 | 0.00 | 93 | 1009.5 |
| 20260506203603 | 59 | 314 | 0.0 | 1.0 | 0.00 | 0.00 | 0.00 | 92 | 1009.5 |
| 20260506203304 | 60 | 314 | 0.0 | 1.0 | 0.00 | 0.00 | 0.00 | 92 | 1008.5 |
| 20260506203003 | 60 | 314 | 0.0 | 3.0 | 0.00 | 0.00 | 0.00 | 92 | 1008.5 |
| 20260506202403 | 60 | 314 | 1.0 | 3.0 | 0.00 | 0.00 | 0.00 | 92 | 1008.5 |
| 20260506202104 | 60 | 320 | 2.0 | 2.0 | 0.00 | 0.00 | 0.00 | 89 | 1008.5 |
| 20260506201803 | 60 | 332 | 1.0 | 3.0 | 0.00 | 0.00 | 0.00 | 88 | 1008.5 |
| 20260506201503 | 60 | 341 | 2.0 | 3.0 | 0.00 | 0.00 | 0.00 | 87 | 1008.5 |
| 20260506201203 | 61 | 350 | 1.0 | 3.0 | 0.00 | 0.00 | 0.00 | 87 | 1008.5 |
| 20260506200904 | 61 | 1 | 2.0 | 2.0 | 0.00 | 0.00 | 0.00 | 83 | 1008.5 |
| 20260506200604 | 61 | 1 | 1.0 | 1.0 | 0.00 | 0.00 | 0.00 | 81 | 1008.5 |
| 20260506200304 | 61 | 1 | 0.0 | 1.0 | 0.00 | 0.00 | 0.00 | 81 | 1008.5 |
| 20260506195403 | 62 | 335 | 1.0 | 2.0 | 0.00 | 0.00 | 0.00 | 78 | 1008.5 |
| 20260506194803 | 63 | 337 | 2.0 | 2.0 | 0.00 | 0.00 | 0.00 | 75 | 1008.5 |
| 20260506194204 | 63 | 0 | 0.0 | 0.0 | 0.00 | 0.00 | 0.00 | 74 | 1008.5 |
| 20260506193903 | 63 | 0 | 0.0 | 0.0 | 0.00 | 0.00 | 0.00 | 75 | 1008.5 |
| 20260506193603 | 63 | 0 | 0.0 | 0.0 | 0.00 | 0.00 | 0.00 | 74 | 1008.5 |
| 20260506193303 | 63 | 135 | 0.0 | 2.0 | 0.00 | 0.00 | 0.00 | 74 | 1008.5 |
| 20260506193003 | 63 | 135 | 0.0 | 2.0 | 0.00 | 0.00 | 0.00 | 74 | 1008.5 |
| 20260506192403 | 63 | 135 | 2.0 | 3.0 | 0.00 | 0.00 | 0.00 | 75 | 1008.5 |
| 20260506192104 | 63 | 135 | 2.0 | 3.0 | 0.00 | 0.00 | 0.00 | 75 | 1008.5 |
| 20260506191803 | 63 | 135 | 3.0 | 3.0 | 0.00 | 0.00 | 0.00 | 72 | 1007.5 |
| 20260506191204 | 64 | 135 | 1.0 | 3.0 | 0.00 | 0.00 | 0.00 | 69 | 1007.5 |
| 20260506190903 | 64 | 135 | 2.0 | 3.0 | 0.00 | 0.00 | 0.00 | 69 | 1007.5 |
| 20260506190603 | 64 | 138 | 3.0 | 3.0 | 0.00 | 0.00 | 0.00 | 68 | 1007.5 |
| 20260506190004 | 65 | 154 | 2.0 | 2.0 | 0.00 | 0.00 | 0.00 | 65 | 1007.5 |
| 20260506185703 | 65 | 162 | 1.0 | 2.0 | 0.00 | 0.00 | 0.00 | 63 | 1007.5 |
| 20260506185404 | 65 | 155 | 2.0 | 2.0 | 0.00 | 0.00 | 0.00 | 61 | 1007.5 |
| 20260506185103 | 66 | 154 | 1.0 | 2.0 | 0.00 | 0.00 | 0.00 | 61 | 1007.5 |
| 20260506184803 | 66 | 140 | 0.0 | 2.0 | 0.00 | 0.00 | 0.00 | 60 | 1007.5 |
| 20260506184203 | 67 | 148 | 1.0 | 2.0 | 0.00 | 0.00 | 0.00 | 58 | 1007.5 |
| 20260506183903 | 68 | 149 | 2.0 | 2.0 | 0.00 | 0.00 | 0.00 | 57 | 1007.5 |
| 20260506183604 | 68 | 149 | 0.0 | 2.0 | 0.00 | 0.00 | 0.00 | 57 | 1007.5 |
| 20260506183304 | 68 | 157 | 1.0 | 3.0 | 0.00 | 0.00 | 0.00 | 57 | 1007.5 |
| 20260506183003 | 68 | 148 | 2.0 | 4.0 | 0.00 | 0.00 | 0.00 | 57 | 1007.5 |
| 20260506182703 | 68 | 133 | 1.0 | 4.0 | 0.00 | 0.00 | 0.00 | 58 | 1007.5 |
| 20260506182404 | 68 | 132 | 3.0 | 6.0 | 0.00 | 0.00 | 0.00 | 58 | 1007.5 |
| 20260506182103 | 68 | 128 | 4.0 | 6.0 | 0.00 | 0.00 | 0.00 | 58 | 1007.5 |
| 20260506181804 | 68 | 134 | 1.0 | 6.0 | 0.00 | 0.04 | 0.00 | 58 | 1006.5 |
| 20260506181504 | 68 | 132 | 5.0 | 6.0 | 0.00 | 0.04 | 0.00 | 57 | 1006.5 |
| 20260506181203 | 68 | 118 | 3.0 | 6.0 | 0.00 | 0.04 | 0.00 | 56 | 1006.5 |
| 20260506180904 | 69 | 115 | 3.0 | 6.0 | 0.00 | 0.04 | 0.00 | 53 | 1006.5 |
| 20260506180603 | 69 | 112 | 3.0 | 6.0 | 0.00 | 0.04 | 0.00 | 52 | 1006.5 |
| 20260506180303 | 69 | 118 | 6.0 | 6.0 | 0.00 | 0.04 | 0.00 | 51 | 1006.5 |
| 20260506180004 | 69 | 125 | 3.0 | 6.0 | 0.00 | 0.04 | 0.00 | 51 | 1006.5 |
| 20260506175704 | 69 | 131 | 6.0 | 6.0 | 0.00 | 0.04 | 0.00 | 51 | 1006.5 |
| 20260506175403 | 69 | 136 | 6.0 | 6.0 | 0.00 | 0.04 | 0.00 | 51 | 1006.5 |
| 20260506175103 | 70 | 140 | 3.0 | 6.0 | 0.00 | 0.04 | 0.00 | 50 | 1006.5 |
| 20260506174803 | 70 | 140 | 4.0 | 6.0 | 0.00 | 0.04 | 0.00 | 49 | 1006.5 |
| 20260506174503 | 70 | 132 | 6.0 | 6.0 | 0.00 | 0.04 | 0.00 | 46 | 1006.5 |
| 20260506174204 | 70 | 132 | 4.0 | 6.0 | 0.00 | 0.04 | 0.00 | 45 | 1006.5 |
| 20260506173903 | 71 | 131 | 5.0 | 8.0 | 0.00 | 0.04 | 0.00 | 45 | 1006.5 |
| 20260506173603 | 71 | 140 | 5.0 | 8.0 | 0.00 | 0.04 | 0.00 | 45 | 1006.5 |
| 20260506173304 | 70 | 141 | 0.0 | 8.0 | 0.00 | 0.04 | 0.00 | 45 | 1006.5 |
| 20260506173003 | 70 | 135 | 3.0 | 8.0 | 0.00 | 0.04 | 0.00 | 45 | 1006.5 |
| 20260506172103 | 73 | 104 | 3.0 | 6.0 | 0.00 | 0.04 | 0.00 | 41 | 1006.5 |
| 20260506171803 | 72 | 112 | 1.0 | 6.0 | 0.00 | 0.04 | 0.00 | 41 | 1006.5 |
| 20260506171503 | 72 | 150 | 0.0 | 6.0 | 0.00 | 0.09 | 0.00 | 42 | 1006.5 |
| 20260506171204 | 71 | 140 | 6.0 | 6.0 | 0.00 | 0.09 | 0.00 | 42 | 1006.5 |
| 20260506170904 | 71 | 148 | 3.0 | 3.0 | 0.00 | 0.09 | 0.00 | 42 | 1006.5 |
| 20260506170303 | 72 | 135 | 3.0 | 3.0 | 0.00 | 0.09 | 0.00 | 41 | 1006.5 |
| 20260506165703 | 71 | 135 | 3.0 | 3.0 | 0.00 | 0.09 | 0.00 | 41 | 1006.5 |
| 20260506165403 | 71 | 135 | 3.0 | 3.0 | 0.00 | 0.09 | 0.00 | 41 | 1006.5 |
| 20260506165103 | 71 | 135 | 3.0 | 3.0 | 0.00 | 0.09 | 0.00 | 41 | 1006.5 |
| 20260506164804 | 71 | 135 | 3.0 | 3.0 | 0.00 | 0.09 | 0.00 | 42 | 1006.5 |
| 20260506164504 | 71 | 135 | 3.0 | 3.0 | 0.00 | 0.09 | 0.00 | 42 | 1006.5 |
| 20260506164203 | 70 | 135 | 3.0 | 3.0 | 0.00 | 0.09 | 0.00 | 42 | 1006.5 |
| 20260506163903 | 71 | 135 | 3.0 | 3.0 | 0.00 | 0.09 | 0.00 | 42 | 1006.5 |
| 20260506163603 | 71 | 135 | 3.0 | 3.0 | 0.00 | 0.09 | 0.00 | 42 | 1006.5 |
| 20260506163303 | 70 | 135 | 3.0 | 3.0 | 0.00 | 0.09 | 0.00 | 43 | 1006.5 |
| 20260506163003 | 71 | 135 | 3.0 | 3.0 | 0.00 | 0.09 | 0.00 | 44 | 1006.5 |
| 20260506162702 | 71 | 135 | 3.0 | 3.0 | 0.00 | 0.09 | 0.00 | 42 | 1006.5 |
| 20260506162403 | 71 | 135 | 3.0 | 3.0 | 0.00 | 0.09 | 0.00 | 43 | 1006.5 |
| 20260506162103 | 71 | 135 | 3.0 | 3.0 | 0.00 | 0.09 | 0.00 | 44 | 1006.5 |
| 20260506161803 | 71 | 135 | 3.0 | 3.0 | 0.00 | 0.09 | 0.00 | 43 | 1006.5 |
| 20260506161503 | 72 | 135 | 3.0 | 3.0 | 0.00 | 0.09 | 0.00 | 42 | 1006.5 |
| 20260506161203 | 72 | 135 | 3.0 | 3.0 | 0.00 | 0.09 | 0.00 | 41 | 1006.5 |
| 20260506160604 | 73 | 121 | 3.0 | 6.0 | 0.00 | 0.09 | 0.00 | 41 | 1006.5 |
| 20260506160303 | 73 | 104 | 3.0 | 6.0 | 0.00 | 0.09 | 0.00 | 39 | 1006.5 |
| 20260506160003 | 73 | 93 | 2.0 | 6.0 | 0.00 | 0.09 | 0.00 | 36 | 1006.5 |
| 20260506154503 | 74 | 90 | 6.0 | 6.0 | 0.00 | 0.09 | 0.00 | 33 | 1006.5 |
| 20260506154203 | 73 | 90 | 6.0 | 6.0 | 0.00 | 0.09 | 0.00 | 33 | 1006.5 |
| 20260506153903 | 74 | 99 | 6.0 | 6.0 | 0.00 | 0.09 | 0.00 | 32 | 1006.5 |
| 20260506153603 | 74 | 140 | 6.0 | 9.0 | 0.00 | 0.09 | 0.00 | 33 | 1006.5 |
| 20260506152403 | 73 | 157 | 6.0 | 6.0 | 0.00 | 0.09 | 0.00 | 32 | 1006.5 |
| 20260506152103 | 73 | 167 | 5.0 | 9.0 | 0.00 | 0.09 | 0.00 | 32 | 1006.5 |
| 20260506151803 | 72 | 157 | 6.0 | 10.0 | 0.00 | 0.09 | 0.00 | 33 | 1006.5 |
| 20260506151503 | 72 | 158 | 5.0 | 10.0 | 0.00 | 0.09 | 0.00 | 33 | 1006.5 |
| 20260506151204 | 72 | 153 | 2.0 | 10.0 | 0.00 | 0.09 | 0.00 | 32 | 1006.5 |
| 20260506150903 | 73 | 144 | 10.0 | 10.0 | 0.00 | 0.09 | 0.00 | 31 | 1006.5 |
| 20260506150604 | 74 | 164 | 3.0 | 8.0 | 0.00 | 0.09 | 0.00 | 32 | 1006.5 |
| 20260506150305 | 73 | 189 | 2.0 | 8.0 | 0.00 | 0.09 | 0.00 | 33 | 1006.5 |
| 20260506150003 | 73 | 191 | 8.0 | 8.0 | 0.00 | 0.09 | 0.00 | 32 | 1006.5 |
| 20260506145703 | 73 | 174 | 4.0 | 7.0 | 0.00 | 0.09 | 0.00 | 33 | 1006.5 |
| 20260506145403 | 73 | 152 | 5.0 | 7.0 | 0.00 | 0.09 | 0.00 | 33 | 1007.5 |
| 20260506145103 | 73 | 154 | 3.0 | 7.0 | 0.00 | 0.09 | 0.00 | 33 | 1007.5 |
| 20260506144803 | 73 | 182 | 3.0 | 7.0 | 0.00 | 0.09 | 0.00 | 32 | 1007.5 |
| 20260506144504 | 74 | 188 | 6.0 | 7.0 | 0.00 | 0.09 | 0.00 | 32 | 1007.5 |
| 20260506144203 | 73 | 189 | 4.0 | 7.0 | 0.00 | 0.09 | 0.00 | 33 | 1007.5 |
| 20260506143903 | 73 | 183 | 4.0 | 6.0 | 0.00 | 0.09 | 0.00 | 33 | 1007.5 |
| 20260506143303 | 72 | 188 | 3.0 | 6.0 | 0.00 | 0.09 | 0.00 | 33 | 1007.5 |
| 20260506143003 | 72 | 193 | 6.0 | 6.0 | 0.00 | 0.09 | 0.00 | 33 | 1007.5 |
| 20260506142702 | 72 | 202 | 2.0 | 4.0 | 0.00 | 0.09 | 0.00 | 34 | 1007.5 |
| 20260506142403 | 72 | 184 | 4.0 | 9.0 | 0.00 | 0.09 | 0.00 | 34 | 1007.5 |
| 20260506142103 | 72 | 168 | 3.0 | 9.0 | 0.00 | 0.09 | 0.00 | 33 | 1007.5 |
| 20260506141803 | 72 | 161 | 1.0 | 11.0 | 0.00 | 0.09 | 0.00 | 33 | 1007.5 |
| 20260506141503 | 72 | 161 | 4.0 | 11.0 | 0.00 | 0.09 | 0.00 | 33 | 1007.5 |
| 20260506141203 | 73 | 182 | 7.0 | 11.0 | 0.00 | 0.09 | 0.00 | 32 | 1007.5 |
| 20260506140603 | 74 | 204 | 3.0 | 6.0 | 0.00 | 0.09 | 0.00 | 32 | 1007.5 |
| 20260506140303 | 72 | 202 | 6.0 | 6.0 | 0.00 | 0.09 | 0.00 | 31 | 1007.5 |
| 20260506140004 | 72 | 182 | 2.0 | 6.0 | 0.00 | 0.09 | 0.00 | 32 | 1007.5 |
| 20260506135703 | 72 | 172 | 4.0 | 11.0 | 0.00 | 0.09 | 0.00 | 32 | 1007.5 |
| 20260506135403 | 72 | 167 | 3.0 | 11.0 | 0.00 | 0.09 | 0.00 | 32 | 1007.5 |
| 20260506135103 | 71 | 171 | 2.0 | 11.0 | 0.00 | 0.09 | 0.00 | 32 | 1007.5 |
| 20260506134503 | 72 | 178 | 3.0 | 5.0 | 0.00 | 0.09 | 0.00 | 32 | 1007.5 |
| 20260506134203 | 72 | 192 | 2.0 | 4.0 | 0.00 | 0.09 | 0.00 | 32 | 1007.5 |
| 20260506133903 | 72 | 195 | 4.0 | 4.0 | 0.00 | 0.09 | 0.00 | 30 | 1007.5 |
| 20260506133603 | 73 | 202 | 4.0 | 6.0 | 0.00 | 0.09 | 0.00 | 31 | 1007.5 |
| 20260506133303 | 72 | 199 | 3.0 | 6.0 | 0.00 | 0.09 | 0.00 | 30 | 1007.5 |
| 20260506133003 | 72 | 174 | 2.0 | 10.0 | 0.00 | 0.09 | 0.00 | 31 | 1007.5 |
| 20260506132702 | 72 | 170 | 1.0 | 10.0 | 0.00 | 0.09 | 0.00 | 31 | 1007.5 |
| 20260506132403 | 72 | 169 | 5.0 | 10.0 | 0.00 | 0.09 | 0.00 | 31 | 1007.5 |
| 20260506132104 | 73 | 170 | 10.0 | 10.0 | 0.00 | 0.09 | 0.00 | 31 | 1007.5 |
| 20260506131803 | 72 | 170 | 1.0 | 6.0 | 0.00 | 0.09 | 0.00 | 32 | 1007.5 |
| 20260506131504 | 72 | 179 | 1.0 | 6.0 | 0.00 | 0.09 | 0.00 | 32 | 1007.5 |
| 20260506131203 | 72 | 179 | 3.0 | 4.0 | 0.00 | 0.09 | 0.00 | 35 | 1007.5 |
| 20260506130903 | 71 | 189 | 4.0 | 5.0 | 0.00 | 0.09 | 0.00 | 36 | 1008.5 |
| 20260506130603 | 71 | 192 | 4.0 | 6.0 | 0.00 | 0.09 | 0.00 | 36 | 1008.5 |
| 20260506130303 | 71 | 196 | 3.0 | 8.0 | 0.00 | 0.09 | 0.00 | 35 | 1008.5 |
| 20260506130004 | 71 | 191 | 4.0 | 8.0 | 0.00 | 0.09 | 0.00 | 35 | 1008.5 |
| 20260506125704 | 71 | 193 | 2.0 | 8.0 | 0.00 | 0.09 | 0.00 | 38 | 1008.5 |
| 20260506125403 | 71 | 189 | 6.0 | 8.0 | 0.00 | 0.09 | 0.00 | 37 | 1008.5 |
| 20260506125104 | 71 | 196 | 4.0 | 8.0 | 0.00 | 0.09 | 0.00 | 37 | 1008.5 |
| 20260506124502 | 71 | 202 | 5.0 | 6.0 | 0.00 | 0.09 | 0.00 | 37 | 1008.5 |
| 20260506124203 | 71 | 199 | 6.0 | 6.0 | 0.00 | 0.09 | 0.00 | 37 | 1008.5 |
| 20260506123904 | 71 | 200 | 6.0 | 6.0 | 0.00 | 0.09 | 0.00 | 36 | 1008.5 |
| 20260506123603 | 71 | 197 | 4.0 | 6.0 | 0.00 | 0.09 | 0.00 | 37 | 1008.5 |